| time (UTC) | temp F | wind direction | speed knots | gust knots | rain 1hr in | rain 24hr in | rain mn in | humidity % | barometer mb |
| 20260905064531 | 58 | 352 | 0.0 | 1.7 | 0.00 | 0.00 | 0.00 | 93 | 1013.5 |
| 20260905063014 | 58 | 352 | 0.0 | 2.6 | 0.00 | 0.00 | 0.00 | 93 | 1013.6 |
| 20260905061520 | 58 | 338 | 0.0 | 1.7 | 0.00 | 0.00 | 0.00 | 93 | 1013.7 |
| 20260905060040 | 59 | 324 | 0.0 | 0.9 | 0.00 | 0.00 | 0.00 | 92 | 1013.6 |
| 20260905054557 | 60 | 324 | 0.0 | 0.0 | 0.00 | 0.00 | 0.00 | 91 | 1013.7 |
| 20260905053033 | 60 | 324 | 0.0 | 1.7 | 0.00 | 0.00 | 0.00 | 90 | 1013.8 |
| 20260905051518 | 61 | 355 | 0.0 | 1.7 | 0.00 | 0.00 | 0.00 | 88 | 1013.9 |
| 20260905050003 | 62 | 345 | 0.0 | 1.7 | 0.00 | 0.00 | 0.00 | 88 | 1013.9 |
| 20260905044527 | 62 | 345 | 0.0 | 1.7 | 0.00 | 0.00 | 0.00 | 88 | 1014.0 |
| 20260905043007 | 62 | 345 | 0.0 | 1.7 | 0.00 | 0.00 | 0.00 | 90 | 1013.9 |
| 20260905041519 | 62 | 345 | 0.0 | 1.7 | 0.00 | 0.00 | 0.00 | 93 | 1013.9 |
| 20260905040021 | 61 | 345 | 0.0 | 1.7 | 0.00 | 0.00 | 0.00 | 95 | 1013.9 |
| 20260905034504 | 61 | 345 | 0.0 | 0.9 | 0.00 | 0.00 | 0.00 | 95 | 1013.8 |
| 20260905033008 | 61 | 345 | 0.0 | 0.9 | 0.00 | 0.00 | 0.00 | 95 | 1013.8 |
| 20260905031510 | 61 | 345 | 0.0 | 0.9 | 0.00 | 0.00 | 0.00 | 94 | 1013.6 |
| 20260905030029 | 62 | 345 | 0.0 | 0.9 | 0.00 | 0.00 | 0.00 | 94 | 1013.6 |
| 20260905024525 | 62 | 345 | 0.0 | 0.0 | 0.00 | 0.00 | 0.00 | 93 | 1013.6 |
| 20260905023003 | 62 | 345 | 0.0 | 0.9 | 0.00 | 0.00 | 0.00 | 93 | 1013.7 |
| 20260905021507 | 62 | 345 | 0.0 | 1.7 | 0.00 | 0.00 | 0.00 | 94 | 1013.8 |
| 20260905020014 | 62 | 345 | 0.0 | 0.9 | 0.00 | 0.00 | 0.00 | 93 | 1013.9 |
| 20260905014525 | 62 | 345 | 0.0 | 0.9 | 0.00 | 0.00 | 0.00 | 91 | 1013.7 |
| 20260905013008 | 62 | 345 | 0.0 | 0.9 | 0.00 | 0.00 | 0.00 | 91 | 1013.7 |
| 20260905011508 | 63 | 345 | 0.0 | 0.0 | 0.00 | 0.00 | 0.00 | 89 | 1013.8 |
| 20260905010017 | 64 | 345 | 0.0 | 0.0 | 0.00 | 0.00 | 0.00 | 90 | 1013.8 |
| 20260905004517 | 64 | 345 | 0.0 | 0.0 | 0.00 | 0.00 | 0.00 | 88 | 1013.8 |
| 20260905003025 | 64 | 345 | 0.0 | 0.0 | 0.00 | 0.00 | 0.00 | 86 | 1013.9 |
| 20260905001505 | 65 | 345 | 0.0 | 0.0 | 0.00 | 0.00 | 0.00 | 84 | 1013.8 |
| 20260905000008 | 66 | 345 | 0.0 | 0.9 | 0.00 | 0.00 | 0.00 | 82 | 1013.7 |
| 20260904234514 | 67 | 345 | 0.0 | 0.0 | 0.00 | 0.00 | 0.00 | 80 | 1013.6 |
| 20260904233022 | 67 | 342 | 0.0 | 2.6 | 0.00 | 0.00 | 0.00 | 78 | 1013.4 |
| 20260904231526 | 68 | 355 | 0.0 | 2.6 | 0.00 | 0.00 | 0.00 | 76 | 1013.3 |
| 20260904230015 | 68 | 344 | 0.9 | 4.3 | 0.00 | 0.00 | 0.00 | 74 | 1013.4 |
| 20260904224513 | 69 | 339 | 1.7 | 6.1 | 0.00 | 0.00 | 0.00 | 72 | 1013.3 |
| 20260904223016 | 69 | 360 | 2.6 | 6.1 | 0.00 | 0.00 | 0.00 | 70 | 1013.4 |
| 20260904221533 | 70 | 326 | 2.6 | 7.8 | 0.00 | 0.00 | 0.00 | 67 | 1013.3 |
| 20260904220031 | 70 | 346 | 1.7 | 7.8 | 0.00 | 0.00 | 0.00 | 66 | 1013.4 |
| 20260904214511 | 71 | 336 | 3.5 | 8.7 | 0.00 | 0.00 | 0.00 | 63 | 1013.5 |
| 20260904213016 | 72 | 352 | 5.2 | 10.4 | 0.00 | 0.00 | 0.00 | 63 | 1013.5 |
| 20260904211520 | 73 | 319 | 4.3 | 9.6 | 0.00 | 0.00 | 0.00 | 61 | 1013.5 |
| 20260904210034 | 73 | 311 | 3.5 | 7.0 | 0.00 | 0.00 | 0.00 | 62 | 1013.7 |
| 20260904204532 | 73 | 308 | 5.2 | 12.2 | 0.00 | 0.00 | 0.00 | 62 | 1013.7 |
| 20260904203019 | 73 | 23 | 4.3 | 10.4 | 0.00 | 0.00 | 0.00 | 61 | 1013.7 |
| 20260904201520 | 73 | 323 | 5.2 | 10.4 | 0.00 | 0.00 | 0.00 | 61 | 1013.9 |
| 20260904200045 | 72 | 327 | 6.1 | 11.3 | 0.00 | 0.00 | 0.00 | 64 | 1014.1 |
| 20260904194533 | 73 | 300 | 3.5 | 10.4 | 0.00 | 0.00 | 0.00 | 65 | 1014.3 |
| 20260904193007 | 72 | 331 | 4.3 | 11.3 | 0.00 | 0.00 | 0.00 | 64 | 1014.3 |
| 20260904191514 | 73 | 351 | 4.3 | 13.0 | 0.00 | 0.00 | 0.00 | 62 | 1014.3 |
| 20260904190023 | 73 | 300 | 4.3 | 10.4 | 0.00 | 0.00 | 0.00 | 62 | 1014.3 |
| 20260904184536 | 74 | 333 | 5.2 | 13.0 | 0.00 | 0.00 | 0.00 | 60 | 1014.3 |
| 20260904183039 | 74 | 291 | 5.2 | 11.3 | 0.00 | 0.00 | 0.00 | 61 | 1014.3 |
| 20260904181514 | 73 | 322 | 4.3 | 11.3 | 0.00 | 0.00 | 0.00 | 63 | 1014.4 |
| 20260904180016 | 74 | 321 | 5.2 | 11.3 | 0.00 | 0.00 | 0.00 | 62 | 1014.4 |
| 20260904174526 | 74 | 319 | 5.2 | 11.3 | 0.00 | 0.00 | 0.00 | 60 | 1014.7 |
| 20260904173037 | 73 | 307 | 2.6 | 11.3 | 0.00 | 0.00 | 0.00 | 64 | 1014.6 |
| 20260904171511 | 73 | 307 | 6.1 | 10.4 | 0.00 | 0.00 | 0.00 | 61 | 1014.5 |
| 20260904170014 | 73 | 348 | 7.8 | 13.9 | 0.00 | 0.00 | 0.00 | 62 | 1014.6 |
| 20260904164523 | 73 | 5 | 5.2 | 11.3 | 0.00 | 0.00 | 0.00 | 64 | 1014.7 |
| 20260904163026 | 73 | 345 | 4.3 | 10.4 | 0.00 | 0.00 | 0.00 | 63 | 1015.0 |
| 20260904161509 | 72 | 323 | 4.3 | 12.2 | 0.00 | 0.00 | 0.00 | 65 | 1014.7 |
| 20260904160016 | 73 | 63 | 3.5 | 9.6 | 0.00 | 0.00 | 0.00 | 65 | 1014.8 |
| 20260904154518 | 72 | 28 | 4.3 | 11.3 | 0.00 | 0.00 | 0.00 | 69 | 1014.9 |
| 20260904153028 | 72 | 319 | 3.5 | 10.4 | 0.00 | 0.00 | 0.00 | 68 | 1014.6 |
| 20260904151533 | 72 | 53 | 5.2 | 9.6 | 0.00 | 0.00 | 0.00 | 68 | 1014.6 |
| 20260904150008 | 72 | 15 | 3.5 | 9.6 | 0.00 | 0.00 | 0.00 | 72 | 1014.6 |
| 20260904144520 | 72 | 342 | 3.5 | 7.0 | 0.00 | 0.00 | 0.00 | 73 | 1014.6 |
| 20260904143033 | 71 | 323 | 2.6 | 11.3 | 0.00 | 0.00 | 0.00 | 73 | 1014.7 |
| 20260904141529 | 71 | 304 | 3.5 | 8.7 | 0.00 | 0.00 | 0.00 | 76 | 1014.6 |
| 20260904140031 | 70 | 360 | 5.2 | 7.8 | 0.00 | 0.00 | 0.00 | 77 | 1014.9 |
| 20260904134517 | 70 | 28 | 2.6 | 7.0 | 0.00 | 0.00 | 0.00 | 80 | 1014.9 |
| 20260904133019 | 69 | 282 | 1.7 | 7.0 | 0.00 | 0.00 | 0.00 | 85 | 1015.1 |
| 20260904131525 | 68 | 312 | 1.7 | 6.1 | 0.00 | 0.00 | 0.00 | 90 | 1014.7 |
| 20260904130031 | 67 | 26 | 1.7 | 6.1 | 0.00 | 0.00 | 0.00 | 95 | 1014.6 |
| 20260904124514 | 65 | 346 | 1.7 | 4.3 | 0.00 | 0.00 | 0.00 | 98 | 1014.6 |
| 20260904123018 | 64 | 325 | 0.0 | 2.6 | 0.00 | 0.00 | 0.00 | 98 | 1014.7 |
| 20260904121523 | 63 | 308 | 0.9 | 2.6 | 0.00 | 0.00 | 0.00 | 98 | 1015.0 |
| 20260904120029 | 62 | 303 | 0.0 | 1.7 | 0.00 | 0.00 | 0.00 | 98 | 1014.7 |
| 20260904114530 | 61 | 338 | 0.0 | 0.0 | 0.00 | 0.00 | 0.00 | 98 | 1014.6 |
| 20260904113014 | 60 | 338 | 0.0 | 0.0 | 0.00 | 0.00 | 0.00 | 99 | 1014.6 |
| 20260904111523 | 59 | 338 | 0.0 | 0.9 | 0.00 | 0.00 | 0.00 | 99 | 1014.5 |
| 20260904110026 | 58 | 338 | 0.0 | 0.9 | 0.00 | 0.00 | 0.00 | 98 | 1014.5 |
| 20260904104531 | 58 | 338 | 0.0 | 0.9 | 0.00 | 0.00 | 0.00 | 98 | 1014.3 |
| 20260904103032 | 58 | 338 | 0.0 | 0.0 | 0.00 | 0.00 | 0.00 | 98 | 1014.3 |
| 20260904101516 | 58 | 338 | 0.0 | 0.0 | 0.00 | 0.00 | 0.00 | 98 | 1014.1 |
| 20260904100023 | 58 | 338 | 0.0 | 0.9 | 0.00 | 0.00 | 0.00 | 98 | 1013.8 |
| 20260904094545 | 59 | 338 | 0.0 | 0.9 | 0.00 | 0.00 | 0.00 | 98 | 1013.8 |
| 20260904093035 | 59 | 338 | 0.0 | 0.0 | 0.00 | 0.00 | 0.00 | 97 | 1013.6 |
| 20260904091537 | 59 | 338 | 0.0 | 0.0 | 0.00 | 0.00 | 0.00 | 98 | 1013.7 |
| 20260904090040 | 59 | 338 | 0.0 | 1.7 | 0.00 | 0.00 | 0.00 | 97 | 1013.4 |
| 20260904084530 | 59 | 338 | 0.0 | 0.9 | 0.00 | 0.00 | 0.00 | 98 | 1013.3 |
| 20260904083103 | 60 | 338 | 0.0 | 0.0 | 0.00 | 0.00 | 0.00 | 98 | 1013.1 |
| 20260904081511 | 60 | 338 | 0.0 | 0.9 | 0.00 | 0.00 | 0.00 | 98 | 1013.1 |
| 20260904080019 | 60 | 338 | 0.0 | 1.7 | 0.00 | 0.00 | 0.00 | 97 | 1013.0 |
| 20260904074531 | 60 | 338 | 0.0 | 1.7 | 0.00 | 0.00 | 0.00 | 97 | 1013.1 |
| 20260904073003 | 61 | 338 | 0.0 | 2.6 | 0.00 | 0.00 | 0.00 | 97 | 1013.0 |
| 20260904071508 | 61 | 338 | 0.0 | 0.9 | 0.00 | 0.00 | 0.00 | 97 | 1013.0 |
| 20260904070014 | 61 | 338 | 0.0 | 0.0 | 0.00 | 0.00 | 0.00 | 97 | 1012.9 |